Weather History for Monroe, WI

Change the Weather History Date:

Monday, January 13, 2014

  Actual Average Record
Temperature  
Mean Temperature 32 °F -  
Max Temperature 39 °F 0 °F 44 °F (2002)
Min Temperature 24 °F - -7 °F (1998)
Degree Days  
Heating Degree Days 34    
Moisture  
Dew Point 32 °F    
Average Humidity 96    
Maximum Humidity 100    
Minimum Humidity 77    
Precipitation  
Precipitation 0.00 in - - ()
Sea Level Pressure  
Sea Level Pressure 29.59 in    
Wind  
Wind Speed 12 mph (WSW)    
Max Wind Speed 20 mph    
Max Gust Speed 26 mph    
Visibility 10 miles    
Events      
Averages and records for this station are not official NWS values.
T = Trace of Precipitation, MM = Missing Value Source: NWS Daily Summary

Daily Weather History Graph

Daily Weather History Graph

Search for Another Location

Airport:

Trip Planner

Search our weather history database for the weather conditions in past years. The results will help you decide how hot, cold, wet, or windy it might be!

Date:

Astronomy

Jan. 13, 2014 Rise Set
Actual Time 7:26 AM CST 4:48 PM CST
Civil Twilight 6:55 AM CST 5:19 PM CST
Nautical Twilight 6:20 AM CST 5:54 PM CST
Astronomical Twilight 5:46 AM CST 6:28 PM CST
Moon 3:03 PM CST (1/13) 5:14 AM CST (1/13)
Length of Visible Light 10h 24m
Length of Day
9h 21m
Waxing Gibbous, 95% of the Moon is Illuminated
Jan 13
Waxing Gibbous
Jan 15
Full
Jan 23
Last Quarter
Jan 30
New
Feb 6
First Quarter

Hourly Weather History & Observations

Time (CST) Temp. Windchill Dew Point Humidity Pressure Visibility Wind Dir Wind Speed Gust Speed Precip Events Conditions
12:15 AM 33.6 °F 25.6 °F 33.6 °F 100% 29.53 in 10.0 mi SSW 10.4 mph - N/A   Clear
12:35 AM 33.8 °F 26.4 °F 33.8 °F 100% 29.54 in 10.0 mi SSW 9.2 mph - N/A   Scattered Clouds
12:55 AM 34.7 °F 28.1 °F 34.7 °F 100% 29.53 in 10.0 mi SSW 8.1 mph - N/A   Overcast
1:15 AM 34.7 °F 26.9 °F 34.7 °F 100% 29.53 in 10.0 mi SSW 10.4 mph - N/A   Overcast
1:35 AM 34.7 °F 26.4 °F 34.7 °F 100% 29.53 in 10.0 mi SSW 11.5 mph - N/A   Overcast
1:55 AM 35.2 °F 27.6 °F 35.2 °F 100% 29.52 in 10.0 mi SSW 10.4 mph - N/A   Overcast
2:15 AM 35.6 °F 28.6 °F 35.6 °F 100% 29.53 in 10.0 mi SSW 9.2 mph - N/A   Overcast
2:35 AM 35.6 °F 28.0 °F 35.6 °F 100% 29.52 in 10.0 mi SSW 10.4 mph - N/A   Overcast
2:55 AM 35.6 °F 27.5 °F 35.6 °F 100% 29.52 in 10.0 mi SSW 11.5 mph - N/A   Overcast
3:15 AM 35.6 °F 27.5 °F 35.6 °F 100% 29.52 in 10.0 mi SW 11.5 mph - N/A   Overcast
3:35 AM 35.6 °F 28.6 °F 35.6 °F 100% 29.52 in 10.0 mi SW 9.2 mph - N/A   Overcast
3:55 AM 35.2 °F 27.6 °F 35.2 °F 100% 29.52 in 10.0 mi SSW 10.4 mph - N/A   Overcast
4:15 AM 35.2 °F 28.1 °F 35.2 °F 100% 29.53 in 10.0 mi SW 9.2 mph - N/A   Overcast
4:35 AM 35.2 °F 28.8 °F 35.2 °F 100% 29.52 in 10.0 mi SW 8.1 mph - N/A   Overcast
4:55 AM 35.6 °F 27.5 °F 35.6 °F 100% 29.52 in 10.0 mi WSW 11.5 mph - N/A   Overcast
5:20 AM 35.8 °F 28.8 °F 35.8 °F 100% 29.50 in 10.0 mi WSW 9.2 mph - N/A   Overcast
5:35 AM 35.6 °F 28.6 °F 35.6 °F 100% 29.51 in 10.0 mi SW 9.2 mph - N/A   Overcast
6:00 AM 35.8 °F 27.3 °F 35.8 °F 100% 29.51 in 10.0 mi WSW 12.7 mph - N/A   Overcast
6:15 AM 36.3 °F 29.5 °F 36.3 °F 100% 29.51 in 10.0 mi SW 9.2 mph - N/A   Overcast
6:35 AM 36.3 °F 29.5 °F 36.3 °F 100% 29.51 in 10.0 mi WSW 9.2 mph - N/A   Overcast
6:55 AM 36.9 °F 27.1 °F 36.9 °F 100% 29.51 in 10.0 mi West 17.3 mph - N/A   Overcast
7:15 AM 36.3 °F 27.1 °F 36.3 °F 100% 29.52 in 10.0 mi West 15.0 mph - N/A   Overcast
7:35 AM 36.1 °F 27.3 °F 36.1 °F 100% 29.51 in 10.0 mi West 13.8 mph - N/A   Overcast
7:55 AM 35.8 °F 25.7 °F 35.8 °F 100% 29.53 in 10.0 mi West 17.3 mph - N/A   Overcast
8:15 AM 35.6 °F 25.9 °F 35.6 °F 100% 29.54 in 10.0 mi West 16.1 mph - N/A   Overcast
8:40 AM 35.8 °F 27.3 °F 35.8 °F 100% 29.54 in 10.0 mi West 12.7 mph - N/A   Overcast
8:55 AM 35.8 °F 27.3 °F 35.8 °F 100% 29.54 in 10.0 mi West 12.7 mph - N/A   Overcast
9:15 AM 36.5 °F 28.7 °F 36.5 °F 100% 29.54 in 10.0 mi West 11.5 mph - N/A   Overcast
9:35 AM 36.5 °F 26.7 °F 36.5 °F 100% 29.56 in 10.0 mi West 17.3 mph - N/A   Overcast
9:55 AM 36.7 °F 28.0 °F 36.7 °F 100% 29.55 in 10.0 mi West 13.8 mph - N/A   Overcast
10:15 AM 37.8 °F 29.0 °F 37.2 °F 98% 29.56 in 10.0 mi West 15.0 mph - N/A   Mostly Cloudy
10:35 AM 37.9 °F 28.9 °F 36.9 °F 96% 29.56 in 10.0 mi West 16.1 mph 20.7 mph N/A   Scattered Clouds
10:55 AM 38.5 °F 29.9 °F 36.5 °F 93% 29.56 in 10.0 mi West 15.0 mph - N/A   Clear
11:15 AM 39.2 °F 32.5 °F 36.0 °F 88% 29.55 in 10.0 mi West 10.4 mph - N/A   Clear
11:35 AM 38.8 °F 30.0 °F 36.1 °F 90% 29.55 in 10.0 mi West 16.1 mph - N/A   Clear
11:55 AM 39.2 °F 30.2 °F 36.0 °F 88% 29.55 in 10.0 mi West 17.3 mph - N/A   Clear
12:15 PM 39.2 °F 30.5 °F 35.6 °F 87% 29.55 in 10.0 mi West 16.1 mph - N/A   Clear
12:35 PM 38.8 °F 29.4 °F 36.1 °F 90% 29.55 in 10.0 mi West 18.4 mph - N/A   Clear
12:55 PM 39.2 °F 31.2 °F 36.0 °F 88% 29.56 in 10.0 mi West 13.8 mph - N/A   Scattered Clouds
1:15 PM 38.8 °F 30.0 °F 34.9 °F 86% 29.57 in 10.0 mi West 16.1 mph 20.7 mph N/A   Scattered Clouds
1:35 PM 37.8 °F 27.7 °F 34.3 °F 87% 29.57 in 10.0 mi West 19.6 mph 25.3 mph N/A   Scattered Clouds
1:55 PM 35.8 °F 25.4 °F 34.2 °F 94% 29.58 in 10.0 mi West 18.4 mph 26.5 mph N/A   Mostly Cloudy
2:10 PM 34.7 °F 25.9 °F 34.5 °F 99% 29.59 in 10.0 mi WNW 12.7 mph 21.9 mph N/A   Mostly Cloudy
2:35 PM 33.6 °F 23.7 °F 33.6 °F 100% 29.60 in 10.0 mi West 15.0 mph - N/A   Mostly Cloudy
2:55 PM 34.7 °F 24.7 °F 34.2 °F 98% 29.61 in 10.0 mi West 16.1 mph 20.7 mph N/A   Scattered Clouds
3:15 PM 34.7 °F 25.1 °F 32.0 °F 90% 29.62 in 10.0 mi West 15.0 mph 20.7 mph N/A   Clear
3:35 PM 34.7 °F 25.1 °F 30.6 °F 85% 29.63 in 10.0 mi West 15.0 mph 19.6 mph N/A   Clear
3:55 PM 34.3 °F 25.5 °F 28.8 °F 80% 29.64 in 10.0 mi West 12.7 mph 17.3 mph N/A   Clear
4:15 PM 33.8 °F 24.3 °F 31.1 °F 90% 29.65 in 10.0 mi West 13.8 mph - N/A   Clear
4:35 PM 32.9 °F 22.8 °F 30.0 °F 89% 29.65 in 10.0 mi West 15.0 mph - N/A   Clear
4:55 PM 32.2 °F 21.8 °F 29.1 °F 88% 29.66 in 10.0 mi WSW 15.0 mph - N/A   Clear
5:15 PM 32.0 °F 21.6 °F 29.3 °F 90% 29.66 in 10.0 mi West 15.0 mph - N/A   Clear
5:35 PM 31.1 °F 20.5 °F 29.3 °F 93% 29.67 in 10.0 mi WSW 15.0 mph - N/A   Clear
5:55 PM 30.2 °F 18.5 °F 27.1 °F 88% 29.68 in 10.0 mi West 17.3 mph 24.2 mph N/A   Clear
6:15 PM 29.8 °F 18.0 °F 24.4 °F 80% 29.69 in 10.0 mi West 17.3 mph 24.2 mph N/A   Clear
6:35 PM 29.8 °F 17.7 °F 23.5 °F 77% 29.70 in 10.0 mi West 18.4 mph 25.3 mph N/A   Clear
6:55 PM 29.3 °F 17.0 °F 23.4 °F 78% 29.69 in 10.0 mi West 18.4 mph 24.2 mph N/A   Clear
7:15 PM 29.3 °F 17.0 °F 24.6 °F 83% 29.69 in 10.0 mi West 18.4 mph 24.2 mph N/A   Clear
7:35 PM 28.4 °F 17.5 °F 25.7 °F 90% 29.70 in 10.0 mi WSW 13.8 mph - N/A   Clear
7:55 PM 27.5 °F 15.9 °F 26.4 °F 96% 29.70 in 10.0 mi WSW 15.0 mph - N/A   Clear
8:15 PM 27.3 °F 16.1 °F 27.3 °F 100% 29.70 in 10.0 mi WSW 13.8 mph - N/A   Clear
8:35 PM 27.1 °F 15.4 °F 27.1 °F 100% 29.70 in 10.0 mi WSW 15.0 mph - N/A   Clear
8:55 PM 27.0 °F 16.1 °F 27.0 °F 100% 29.72 in 10.0 mi WSW 12.7 mph - N/A   Clear
9:15 PM 26.6 °F 15.7 °F 26.6 °F 100% 29.71 in 10.0 mi WSW 12.7 mph - N/A   Clear
9:40 PM 26.6 °F 15.2 °F 26.6 °F 100% 29.71 in 10.0 mi WSW 13.8 mph - N/A   Clear
9:55 PM 26.6 °F 15.7 °F 26.6 °F 100% 29.71 in 10.0 mi WSW 12.7 mph - N/A   Clear
10:15 PM 26.2 °F 16.4 °F 26.2 °F 100% 29.71 in 10.0 mi SW 10.4 mph - N/A   Clear
10:35 PM 25.3 °F 16.0 °F 25.3 °F 100% 29.71 in 10.0 mi SW 9.2 mph - N/A   Clear
10:55 PM 25.9 °F 16.6 °F 25.9 °F 100% 29.70 in 10.0 mi SW 9.2 mph - N/A   Scattered Clouds
11:15 PM 25.3 °F 17.6 °F 25.3 °F 100% 29.70 in 10.0 mi SSW 6.9 mph - N/A   Mostly Cloudy
11:35 PM 24.8 °F 16.9 °F 24.8 °F 100% 29.70 in 10.0 mi SSW 6.9 mph - N/A   Overcast
11:55 PM 24.8 °F 16.9 °F 24.8 °F 100% 29.70 in 10.0 mi SW 6.9 mph - N/A   Overcast